Tõrva

Estonia     58˚00′05″N   25˚55′32″E
temp.,
°C
wind,
m/s
gust,
m/s
humid.,
%
clouds,
%
prec.,
mm/h
press.,
hPa
HPBL,
m
2 december, wed
wed223:00−1˚ssw3894100 0.0 1030397
02:00−2˚s2695100 0.0 1031253
05:00−4˚s249670 0.0 1031138
08:00−4˚sse269475 0.0 1032183
11:00−3˚s368716 0.0 1032309
14:00−2˚sse368514 0.0 1031413
17:00−4˚sse369527 0.0 1029304
20:00−3˚sse368762 0.0 1029521
3 december, thu
thu323:00−3˚sse4683100 0.0 1027613
02:00−3˚sse378698 0.0 1026546
05:00−2˚se3688100 0.0 1024501
08:00−2˚se3679100 0.1 1023748
11:00−4˚sse4888100 0.1 1022462
14:00−2˚sse488399 0.1 1021650
17:00−2˚sse5982100 0.1 1020874
20:00−2˚sse41088100 0.1 1019810
4 december, fri
fri423:00−2˚sse5118497 0.1 1019811
02:00−1˚sse5128399 0.1 1018784
05:00sse51286100 0.0 1017884
08:00+1˚sse61384100 0.3 1017795
11:00+2˚sse61482100 0.1 1017820
14:00+2˚sse61385100 0.1 1017881
17:00+3˚sse61483100 0.0 1016908
20:00+3˚sse61582100 0.0 1016905
5 december, sat
sat523:00+3˚sse61384100 0.0 1017903
02:00+3˚sse51386100 0.0 1018922
05:00+4˚sse6148799 0.0 1017773
08:00+4˚sse6158797 0.0 1019839
11:00+4˚sse61486100 0.0 1020821
14:00+4˚sse6138590 0.0 1021786
17:00+4˚sse5148865 0.0 1021677
20:00+4˚sse5138859 0.0 1022705
6 december, sun
sun623:00+4˚sse5128697 0.0 1023736
02:00+4˚sse5128494 0.0 1024782
05:00+4˚sse51283100 0.0 1024809
08:00+3˚sse5118296 0.0 1024913
11:00+3˚sse51281100 0.0 1025838
14:00+3˚sse51080100 0.0 1026793
17:00+1˚sse5118288 0.0 1026665
20:00−1˚sse5137957 0.0 1026600